Regional Weather Roundup
Issued by NWS Cleveland, OH

Home | Current Version | Previous Version | Graphics & Text | Print | Product List | Glossary On
Versions: 1 2 3 4 5 6 7 8 9 10 11 12 13 14 15 16 17 18 19 20 21 22 23 24 25 26 27 28 29 30 31 32 33 34 35 36 37 38 39 40 41 42 43 44 45 46 47 48 49 50
000
ASUS41 KCLE 181610
RWRCLE
OHIO REGIONAL WEATHER ROUNDUP
NATIONAL WEATHER SERVICE CLEVELAND, OH
1200 PM EDT THU SEP 18 2014

NOTE: "FAIR" INDICATES FEW OR NO CLOUDS BELOW 12,000 FEET WITH NO
SIGNIFICANT WEATHER AND/OR OBSTRUCTIONS TO VISIBILITY.

OHZ001>008-015>018-024>027-034-035-043-044-181700-
   NORTHWEST OHIO

CITY           SKY/WX    TMP DP  RH WIND       PRES   REMARKS
DEFIANCE       SUNNY     67  48  50 NE5       30.15R
FINDLAY        SUNNY     68  48  48 NE6       30.13R
TOLEDO EXPRESS SUNNY     66  49  54 VRB3      30.14R
TOLEDO EXEC    MOSUNNY   67  53  61 VRB3      30.14S
LIMA           MOSUNNY   67  48  50 NE6       30.14R
$$

OHZ009>014-019>023-028>033-038-089-181700-
   NORTHEAST OHIO

CITY           SKY/WX    TMP DP  RH WIND       PRES   REMARKS
CLE-HOPKINS    PTSUNNY   67  53  61 VRB6      30.13S
CLE-LAKEFRONT  MOSUNNY   66  54  65 N9        30.11R
CUY CO. ARPT   MOSUNNY   66  55  68 N12       30.12R
LORAIN-ELYRIA  SUNNY     70  51  51 NE8       30.12S
ASHTABULA      PTSUNNY   65  52  62 VRB5      30.11R
AKRON-CANTON   MOSUNNY   64  46  52 N9        30.11S
WOOSTER        PTSUNNY   66  49  54 NE6       30.12S
MANSFIELD      MOSUNNY   66  45  46 NE9       30.12S
YOUNGSTOWN     PTSUNNY   65  48  54 VRB6      30.10S
$$

OHZ042-051>053-060>062-070>072-077>081-181700-
  SOUTHWEST OHIO

CITY           SKY/WX    TMP DP  RH WIND       PRES   REMARKS
CINC-COVINGTON MOSUNNY   67  47  48 NE7       30.10S
CINC-LUNKEN    SUNNY     69  49  48 NE12G17   30.11S
HAMILTON       SUNNY     68  50  52 E9        30.12S
DAYTON         MOSUNNY   68  48  48 NE9       30.13S
WRIGHT-PAT AFB NOT AVBL
DAYTON GENERAL SUNNY     67  48  50 NE10      30.11F
WILMINGTON     MOSUNNY   65  48  54 E8        30.11S
$$

OHZ036-037-039>041-045>050-054>059-063>069-073>076-082>088-181700-
  CENTRAL AND SOUTHEAST OHIO

CITY           SKY/WX    TMP DP  RH WIND       PRES   REMARKS
COLUMBUS       MOSUNNY   70  43  37 NE6       30.11R
OSU AIRPORT    SUNNY     68  46  45 N8        30.12R
BOLTON FIELD   MOSUNNY   66  46  48 NE8       30.13R
RICKENBACK AFB SUNNY     67  46  46 E3        30.11R
NEWARK         PTSUNNY   68  45  43 VRB6      30.11R
MARION         MOSUNNY   68  47  46 N10       30.13R
LANCASTER      MOSUNNY   70  46  42 NE8       30.12R
ZANESVILLE     MOSUNNY   67  44  43 N8        30.11R
NEW PHILLY     PTSUNNY   64  47  53 N6        30.12R
$$


USA.gov is the U.S. government's official web portal to all federal, state and local government web resources and services.